• Join FlightAware (Why Join?)
  • Login
  • US Flag 
Gobble Gobble! 
03:51PM EST


 

Airport Tracker/Info


-or-


 

Live Flight TrackerFlight Track Log ✈ DAL6231 ✈ 19-Sep-2013 ✈ KLGA - KPWM

Flight Track Log - Related Links

Times and Time Zones

All times are in EDT time to prevent confusion due to time zone crossing. See the DAL6231 flight status page for this flight to view local times or setup timezone preferences in your user account.

Time Position Orientation Groundspeed Altitude Reporting Facility
EDT Latitude Longitude Course Direction KTS MPH feet Rate Location/Type
11:28PM 40.7667 -73.8167 51° Northeast 228 262 3,700  Level New York TRACON
11:31PM 40.8950 -73.6975 35° Northeast 245 282 10,000 2,220 Climbing Boston Center
11:32PM 40.9725 -73.6469 26° Northeast 273 314 11,300 1,800 Climbing Boston Center
11:33PM 41.4254 -73.3442 27° Northeast  Level FlightAware Approximate
11:33PM 41.0692 -73.5853 26° Northeast 329 379 13,600  Level Boston Center
11:34PM 41.5013 -73.2811 51° Northeast  Level FlightAware Approximate
11:34PM 41.1489 -73.5344 26° Northeast 349 402 15,700  Level Boston Center
11:35PM 41.2433 -73.4533 33° Northeast 356 410 17,900 1,980 Climbing Boston Center
11:36PM 41.3294 -73.3689 36° Northeast 369 425 19,700 1,740 Climbing Boston Center
11:37PM 41.4136 -73.2842 37° Northeast 374 430 21,400 1,500 Climbing Boston Center
11:38PM 41.5017 -73.1967 37° Northeast 379 436 22,800 1,260 Climbing Boston Center
11:39PM 41.5794 -73.1172 37° Northeast 384 442 24,000 1,440 Climbing Boston Center
11:40PM 41.6631 -73.0347 36° Northeast 405 466 25,700 1,500 Climbing Boston Center
11:41PM 41.7742 -72.9244 36° Northeast 415 478 27,000 600 Climbing Boston Center
11:42PM 41.8725 -72.8192 39° Northeast 426 490 27,000  Level Boston Center
11:43PM 41.9708 -72.7167 38° Northeast 440 506 27,000  Level Boston Center
11:44PM 42.0689 -72.6219 36° Northeast 445 512 27,000  Level Boston Center
11:45PM 42.1608 -72.5214 39° Northeast 434 499 27,000  Level Boston Center
11:46PM 42.2608 -72.4206 37° Northeast 434 499 27,000  Level Boston Center
11:47PM 42.3586 -72.3081 40° Northeast 445 512 27,000  Level Boston Center
11:48PM 42.4606 -72.2122 35° Northeast 445 512 27,000  Level Boston Center
11:49PM 42.5603 -72.1103 37° Northeast 445 512 27,000 -600 Level Boston Center
11:50PM 42.6581 -72.0053 38° Northeast 445 512 25,900 -1,560 Descending Boston Center
11:51PM 42.7492 -71.9086 38° Northeast 440 506 23,900 -2,040 Descending Boston Center
11:52PM 42.8447 -71.8058 38° Northeast 435 501 21,900 -2,040 Descending Boston Center
11:53PM 42.9400 -71.7083 37° Northeast 435 501 19,900 -1,860 Descending Boston Center
11:54PM 43.0186 -71.6222 39° Northeast 411 473 17,900 -1,800 Descending Boston Center
11:55PM 43.1364 -71.4983 37° Northeast 406 467 16,000 -1,680 Descending Boston Center
11:56PM 43.2147 -71.4144 38° Northeast 406 467 14,600 -1,500 Descending Boston Center
11:57PM 43.3078 -71.3131 38° Northeast 393 452 13,000 -1,560 Descending Boston Center
11:58PM 43.3881 -71.2203 40° Northeast 387 445 11,500 -1,020 Descending Boston Center
11:59PM 43.4264 -71.1022 66° East 359 413 11,000 -300 Descending Boston Center
12:00AM 43.4661 -70.9611 69° East 353 406 11,000  Level Boston Center
12:01AM 43.5000 -70.8400 69° East 365 420 11,000 -600 Level Boston Center
12:02AM 43.5297 -70.7333 69° East 327 376 9,900 -1,500 Descending Boston Center
12:03AM 43.5614 -70.6264 68° East 283 326 8,000 -1,800 Descending Boston Center
12:04AM 43.5958 -70.5594 55° Northeast 256 295 6,400 -1,740 Descending Boston Center
12:05AM 43.6556 -70.5231 24° Northeast 211 243 4,600 -1,920 Descending Boston Center
12:06AM 43.6986 -70.4844 33° Northeast 163 188 2,400 -1,320 Descending Boston Center
12:07AM 43.6625 -70.4397 138° Southeast 136 157 1,800 -720 Descending Boston Center
12:08AM 43.6511 -70.3883 107° East 143 165 1,000 -840 Descending Boston Center
12:09AM 43.6458 -70.3283 97° East 148 170 200 -420 Descending Boston Center
12:10AM 43.6386 -70.2769 101° East 148 170 200  Level Boston Center
12:12AM 43.6333 -70.3000 270° West  Level FlightAware Approximate
12:19AM 43.6456 -70.3086 270° West  Level Estimated
12:20AM 43.6456 -70.3086 270° West  Level Estimated
12:21AM 43.6456 -70.3086 270° West  Level Estimated
12:22AM 43.6456 -70.3086 270° West  Level Estimated